This demonstration page uses our WeatherBlox Daily Observations layout. Learn more.

Left ArrowRight Arrow

38.80484, -77.04692

Hourly Observations for September 2, 2017

Temp ( °F °C ) Dew Point ( °F °C ) Humidity (%) Winds ( mph kmh ) Pressure ( in mb ) Visibility ( mi km ) Precip ( " mm )
12:52 am 00:52 Cloudy 64 17.8 52 11.1 65 65 ENE 8 13 30.15 1021 10 16 0.00 0.00
1:52 am 01:52 Cloudy 63 17.2 53 11.7 70 70 ENE 8 13 30.14 1021 10 16 0.00 0.00
2:52 am 02:52 Cloudy 63 17.2 53 11.7 70 70 NNE 9 15 30.14 1021 10 16 0.00 0.00
3:52 am 03:52 Cloudy with Light Rain 62 16.7 54 12.2 75 75 E 5 7 30.13 1020 9 14 0.01 0.25
4:52 am 04:52 Cloudy with Light Rain 62 16.7 53 11.7 73 73 NE 8 13 30.14 1021 10 16 0.03 0.76
5:52 am 05:52 Cloudy with Light Rain 59 15 55 12.8 87 87 SSE 6 9 30.15 1021 8 13 0.08 2.03
6:52 am 06:52 Cloudy with Light Rain 57 13.9 55 12.8 93 93 SE 13 20 30.16 1021 7 11 0.04 1.02
7:07 am 07:07 Cloudy with Rain 57 13.9 56 13.3 96 96 E 14 22 30.18 1022 3 5 0.07 1.78
7:09 am 07:09 Cloudy with Heavy Rain 57 13.9 56 13.3 96 96 E 15 24 30.18 1022 3 4 0.09 2.29
7:20 am 07:20 Cloudy with Heavy Rain 57 13.9 56 13.3 96 96 E 14 22 30.15 1021 3 5 0.21 5.33
7:45 am 07:45 Cloudy with Light Rain 58 14.4 55 12.8 90 90 ENE 14 22 30.15 1021 9 14 0.22 5.59
7:47 am 07:47 Cloudy with Light Rain 57 14 55 13 94 94 ENE 13 20 30.15 1021 10 16 0.22 5.59
7:52 am 07:52 Cloudy with Light Rain 58 14.4 56 13.3 93 93 ENE 12 19 30.15 1021 10 16 0.22 5.59
8:47 am 08:47 Cloudy with Light Rain 59 15 57 14 94 94 NE 12 19 30.15 1021 5 8 0.02 0.51
8:52 am 08:52 Cloudy with Heavy Rain 59 15 57 13.9 93 93 NE 10 17 30.16 1021 2 3 0.05 1.27
8:54 am 08:54 Cloudy with Heavy Rain 59 15 57 13.9 93 93 ENE 10 17 30.15 1021 2 2 0.02 0.51
9:02 am 09:02 Cloudy with Rain 59 15 58 14.4 96 96 NE 10 17 30.15 1021 2 3 0.10 2.54
9:04 am 09:04 Cloudy with Light Rain 59 15 58 14.4 96 96 NE 12 19 30.15 1021 3 4 0.10 2.54
9:06 am 09:06 Cloudy with Light Rain 59 15 58 14.4 96 96 NE 12 19 30.15 1021 4 6 0.11 2.79
9:21 am 09:21 Cloudy with Light Rain 59 15 58 14.4 96 96 NNE 10 17 30.18 1022 4 6 0.11 2.79
9:24 am 09:24 Cloudy with Heavy Rain 59 15 58 14.4 96 96 NE 9 15 30.18 1022 3 4 0.15 3.81
9:32 am 09:32 Cloudy with Light Rain 59 15 58 14.4 96 96 N 9 15 30.18 1022 4 6 0.17 4.32
9:52 am 09:52 Cloudy 60 15.6 58 14.4 93 93 NNE 12 19 30.16 1022 10 16 0.17 4.32
9:54 am 09:54 Cloudy 60 15.6 58 14.4 93 93 NNE 12 19 30.18 1022 10 16 0.00 0.00
10:02 am 10:02 Cloudy 60 15.6 59 15 96 96 NE 13 20 30.15 1021 10 16 0.00 0.00
10:09 am 10:09 Cloudy with Light Rain 60 15.6 58 14.4 93 93 NNE 10 17 30.18 1022 7 11 0.00 0.03
10:12 am 10:12 Cloudy with Light Rain 60 15.6 58 14.4 93 93 NNE 10 17 30.18 1022 6 10 0.01 0.25
10:42 am 10:42 Cloudy with Rain 60 15.6 59 15 96 96 NNE 12 19 30.18 1022 3 4 0.06 1.52
10:46 am 10:46 Cloudy with Light Rain 61 16 57 14 88 88 NNE 9 15 30.18 1022 3 5 0.07 1.78
10:52 am 10:52 Cloudy with Light Rain 60 15.6 58 14.4 93 93 NE 9 15 30.16 1021 6 10 0.07 1.78
10:59 am 10:59 Cloudy with Heavy Rain 60 15.6 59 15 96 96 NE 12 19 30.15 1021 3 4 0.04 1.02
11:05 am 11:05 Cloudy with Rain 60 15.6 59 15 96 96 NE 13 20 30.15 1021 3 5 0.06 1.52
11:07 am 11:07 Cloudy with Light Rain 60 15.6 59 15 96 96 NNE 12 19 30.15 1021 3 5 0.06 1.52
11:33 am 11:33 Cloudy with Light Rain 61 16.1 60 15.6 97 97 NNE 13 20 30.15 1021 10 16 0.07 1.78
11:52 am 11:52 Cloudy 61 16.1 60 15.6 97 97 NE 13 20 30.14 1021 10 16 0.07 1.78
12:10 pm 12:10 Cloudy 61 16.1 60 15.6 97 97 NE 10 17 30.15 1021 10 16 0.00 0.03
12:52 pm 12:52 Cloudy 62 16.7 60 15.6 93 93 NE 12 19 30.12 1020 10 16 0.00 0.03
1:38 pm 13:38 Cloudy with Light Rain 62 16.7 61 16.1 96 96 NE 12 19 30.12 1020 3 5 0.00 0.03
1:52 pm 13:52 Cloudy with Light Rain 63 17.2 61 16.1 93 93 NE 10 17 30.10 1019 3 5 0.00 0.03
2:19 pm 14:19 Cloudy with Light Rain 62 16.7 61 16.1 96 96 NE 9 15 30.09 1019 3 5 0.02 0.51
2:30 pm 14:30 Cloudy with Light Rain 62 16.7 61 16.1 96 96 NNE 9 15 30.09 1019 3 4 0.02 0.51
2:52 pm 14:52 Cloudy with Light Rain 62 16.7 61 16.1 96 96 NNE 10 17 30.09 1019 2 3 0.03 0.76
3:08 pm 15:08 Cloudy with Light Rain 62 16.7 61 16.1 96 96 NE 13 20 30.09 1019 2 3 0.00 0.03
3:18 pm 15:18 Cloudy with Drizzle 62 16.7 62 16.7 100 100 NE 12 19 30.09 1019 3 4 0.00 0.03
3:21 pm 15:21 Cloudy with Drizzle 63 17.2 62 16.7 97 97 NE 10 17 30.09 1019 3 5 0.00 0.03
3:52 pm 15:52 Cloudy with Drizzle 63 17.2 62 16.7 97 97 NE 13 20 30.06 1018 5 8 0.00 0.03
4:04 pm 16:04 Cloudy 63 17.2 62 16.7 97 97 NE 13 20 30.06 1018 9 14 0.00 0.03
4:48 pm 16:48 Cloudy 63 17 63 17 100 100 NE 12 19 30.06 1018 10 16 0.00 0.03
4:52 pm 16:52 Cloudy 63 17.2 62 16.7 97 97 NE 13 20 30.04 1017 10 16 0.00 0.03
5:52 pm 17:52 Cloudy 64 17.8 62 16.7 93 93 NE 9 15 30.04 1017 10 16 0.00 0.00
6:45 pm 18:45 Cloudy 64 17.8 62 16.7 93 93 ENE 10 17 30.03 1017 10 16 0.00 0.00
6:52 pm 18:52 Cloudy 64 17.8 62 16.7 93 93 NE 9 15 30.03 1017 10 16 0.00 0.00
7:27 pm 19:27 Cloudy 64 17.8 62 16.7 93 93 NE 9 15 30.03 1017 10 16 0.00 0.00
7:52 pm 19:52 Cloudy with Drizzle 64 17.8 62 16.7 93 93 NE 9 15 30.04 1017 10 16 0.00 0.03
8:29 pm 20:29 Cloudy 64 17.8 62 16.7 93 93 NNE 8 13 30.06 1018 10 16 0.00 0.03
8:52 pm 20:52 Cloudy 64 17.8 62 16.7 93 93 NE 13 20 30.03 1017 10 16 0.00 0.03
9:52 pm 21:52 Cloudy 63 17.2 62 16.7 97 97 NE 10 17 30.03 1017 10 16 0.00 0.00
10:52 pm 22:52 Cloudy 63 17.2 63 17.2 100 100 E 5 7 30.02 1017 10 16 0.00 0.00
11:52 pm 23:52 Cloudy 64 17.8 63 17.2 96 96 W 3 6 30.01 1016 10 16 0.00 0.00

Powered by AerisWeather